User: anonymous   Login
Location: Capannuccia
(43.7000°N, 11.3000°E)
Time: 13:57:31
(UTC+00:00)
Language:

Resurs 1-4 Rocket - Orbit

View from above orbital plane
View from above orbital plane
View from above satellite
View from above satellite

Ground track
Ground track

The orbit data is extracted from the following two-line orbital elements,

1 25400U 98043G   21163.73049484 -.00000014  00000-0  12726-4 0  9995
2 25400  98.6403  99.6445 0010148  12.0163 348.1257 14.25477261192345
Epoch (UTC): 12 June 2021 17:31:54
Eccentricity: 0.0010148
inclination: 98.6403°
perigee height: 799 km
apogee height: 814 km
right ascension of ascending node: 99.6445°
argument of perigee: 12.0163°
revolutions per day: 14.25477261
mean anomaly at epoch: 348.1257°
orbit number at epoch: 19234

The dashed part of the orbit path shows where the satellite is in the earth's shadow,  

DLR